Wind_Speed
12 12 13 14 15 17 17 17 18 18 18 18 18 18 19 19 19 20 19 19 18 16 12 10 10 9 4 3 3 2 4 5 4 2 3 5 6 7 7 5 3 7 4 2 4 3 7
14 15 16 16 17 17 18 18 19 20 19 19 19 19 20 21 21 21 21 21 20 17 15 11 7 4 1 4 3 3 4 3 3 4 6 5 5 7 6 5 2 5 3 2 4 5 2
13 14 15 16 18 19 19 19 20 21 21 22 23 23 23 24 23 23 24 24 22 19 16 11 5 3 4 9 6 3 2 1 1 3 6 5 7 4 6 4 2 2 3 5 8 7 5
15 15 16 17 18 19 20 20 21 21 22 23 24 25 26 26 27 27 27 24 23 21 15 8 3 2 6 6 5 3 3 3 1 1 3 6 6 6 2 4 3 3 4 4 7 10 4
16 17 18 19 19 20 19 21 22 24 23 24 25 27 28 30 32 32 27 26 21 10 3 3 2 5 5 2 2 6 5 4 4 4 1 2 3 4 2 4 5 7 5 9 5 13 7
13 15 18 19 17 18 20 20 21 22 24 24 25 27 28 30 34 29 26 21 9 2 2 1 5 3 4 1 3 4 4 4 3 4 4 4 4 4 4 5 6 8 7 7 9 12 10
14 16 18 18 17 17 18 19 21 22 23 24 25 27 29 30 32 22 24 9 5 2 4 6 3 4 2 5 3 5 5 6 3 4 5 7 4 9 14 13 16 13 16 15 8 8 9
15 16 18 19 19 19 19 18 18 17 18 21 22 24 26 28 25 21 13 6 6 3 10 12 19 13 1 3 2 6 7 5 5 7 8 3 10 14 11 10 6 10 14 17 10 8 7
15 16 18 18 19 19 19 18 18 17 17 17 18 21 23 24 13 13 11 10 8 7 5 8 2 2 1 7 5 4 9 4 5 8 9 11 11 4 3 9 12 11 13 11 11 3 6
17 17 17 18 19 19 19 18 18 17 18 17 17 17 20 21 3 16 3 13 8 3 4 5 3 3 2 4 3 4 2 2 5 6 9 11 16 15 15 9 7 13 8 10 14 8 7
17 17 17 18 18 19 19 19 17 17 17 18 18 16 15 13 9 4 8 13 8 2 6 3 4 1 3 3 2 2 2 1 7 7 4 8 5 4 7 13 8 9 2 4 7 8 6
16 16 15 15 17 18 19 20 20 20 19 18 16 16 14 7 9 6 13 13 0 2 8 3 4 3 3 7 4 4 4 2 3 6 10 17 5 4 7 1 1 4 2 3 3 2 6
16 16 16 16 16 15 17 17 18 19 19 19 19 16 11 10 6 10 13 4 3 5 4 3 2 3 4 4 5 7 5 6 5 1 6 7 19 4 5 3 2 5 4 2 3 2 8
17 17 18 17 18 17 16 17 18 18 19 19 19 16 12 11 12 12 4 2 7 7 9 2 1 3 4 5 6 8 4 8 10 9 5 3 6 13 10 14 8 9 9 5 8 5 4
18 19 18 19 18 18 18 19 19 19 21 20 18 7 9 7 7 3 3 6 4 2 3 9 13 9 11 3 2 3 6 6 5 9 7 5 6 3 7 4 7 5 8 16 10 9 5
17 18 19 18 18 18 18 19 19 19 19 17 13 7 8 9 4 4 4 12 7 6 6 8 6 7 10 15 7 7 4 2 3 8 8 4 14 3 4 4 6 4 3 2 3 4 7
18 17 17 18 18 20 19 18 18 19 17 16 8 3 4 0 4 1 8 5 8 12 7 7 9 13 12 7 9 11 7 11 8 6 6 6 6 4 5 5 9 4 4 5 2 5 4
19 18 17 18 17 17 17 16 16 17 15 8 5 3 4 2 0 1 6 10 3 4 4 4 2 7 12 10 10 14 17 13 10 5 7 9 5 10 17 3 2 7 9 16 9 9 6
20 19 18 16 18 17 15 13 14 13 9 6 2 3 1 1 3 6 7 11 12 8 7 4 4 3 5 3 4 4 4 4 7 7 3 6 3 6 8 10 4 5 7 9 12 10 22
16 17 18 16 17 18 16 15 13 12 7 2 2 2 1 1 2 5 8 11 13 3 5 7 6 4 3 4 7 5 6 5 5 5 4 4 4 9 13 15 16 7 7 10 12 12 27
16 17 17 17 17 17 18 16 15 12 6 2 2 4 3 2 4 10 8 1 5 5 5 3 3 9 10 6 6 11 11 10 14 16 7 7 9 12 21 25 20 24 25 26 22 21 15
19 18 18 18 18 17 18 18 14 13 8 5 3 2 2 5 9 11 7 3 12 14 11 5 7 10 8 9 9 17 14 9 12 8 9 6 9 14 20 23 19 21 24 29 25 30 25
20 20 20 20 20 19 19 19 16 13 13 6 8 10 3 4 5 6 3 4 5 9 7 11 13 6 8 10 7 7 7 11 16 15 16 5 4 4 19 16 13 12 22 23 22 23 23
22 22 22 21 20 22 23 22 20 18 16 14 9 4 3 6 7 7 10 12 14 15 15 11 4 2 0 2 6 9 13 19 17 21 13 15 17 6 10 11 14 3 6 4 3 6 14
24 24 23 22 21 22 23 23 22 21 19 21 17 7 3 5 5 9 13 10 13 8 5 5 5 2 1 2 3 6 4 3 7 5 6 13 11 6 7 10 13 11 8 6 6 4 11
28 26 24 23 23 25 24 25 24 22 21 18 19 20 5 3 6 10 14 12 11 6 6 3 2 1 0 2 2 4 3 3 5 2 1 2 2 3 5 6 3 2 5 8 7 3 14
30 28 26 23 24 26 27 27 23 23 22 19 13 18 8 4 4 5 7 4 1 2 2 2 4 3 2 2 4 5 6 2 3 3 2 3 2 5 9 7 1 4 15 10 2 5 13
28 27 26 25 24 25 27 27 24 25 24 18 11 20 12 3 3 2 0 4 2 3 3 3 1 1 3 3 2 3 2 2 1 2 3 2 3 2 2 4 2 13 5 5 5 6 7
27 26 26 24 25 24 26 23 18 16 19 18 8 14 13 6 2 2 4 4 3 1 2 3 2 3 2 3 2 2 3 3 3 4 2 1 3 3 3 3 6 3 3 5 7 6 4
Wind_Direction
24 22 18 18 18 16 12 9 7 6 5 2 0 357 355 351 349 345 343 341 337 331 330 326 325 341 31 265 254 293 315 325 350 339 240 284 283 260 264 271 106 234 223 37 15 312 299
19 18 14 9 7 4 3 4 4 3 0 359 358 355 352 348 344 340 337 333 329 323 319 310 313 332 203 247 189 284 315 355 346 312 276 240 282 327 306 308 258 358 4 175 200 219 245
5 5 6 6 5 1 360 357 357 358 358 357 356 354 350 346 341 336 332 327 319 311 309 298 302 318 251 240 178 245 317 272 285 320 306 279 307 280 333 225 97 278 255 216 218 189 208
349 351 350 350 348 349 351 353 354 353 353 352 353 352 351 348 343 336 328 322 313 306 295 277 274 234 259 218 217 225 184 194 227 223 270 305 287 263 315 100 211 227 225 252 193 164 193
339 342 341 340 340 340 344 348 349 349 347 348 348 349 349 349 346 338 331 325 316 315 279 241 266 236 265 188 202 192 181 182 167 174 206 262 275 267 161 210 250 204 243 217 180 185 142
341 338 337 336 342 343 343 342 341 341 342 342 344 347 348 348 345 342 336 328 327 3 58 205 270 307 208 345 105 166 176 188 203 158 175 189 207 227 217 200 223 227 219 242 242 195 182
340 341 340 341 342 337 331 329 331 333 335 338 341 345 345 347 346 355 350 347 328 236 259 240 230 260 185 115 178 229 174 173 217 207 214 188 180 213 224 223 240 270 289 290 290 189 168
339 338 336 337 337 337 338 338 334 333 331 328 333 337 337 344 346 2 21 32 49 296 304 262 256 258 211 113 242 196 166 212 187 212 211 193 231 233 257 273 270 271 251 266 287 165 188
336 335 335 337 336 336 337 338 334 334 331 332 334 333 336 346 347 3 42 40 340 340 259 285 80 274 249 167 225 205 177 204 244 237 233 234 236 229 224 271 253 260 259 262 257 199 238
337 336 334 336 336 335 334 335 335 334 335 333 334 337 341 345 32 341 49 342 336 332 286 232 168 98 159 290 250 65 238 281 231 251 231 251 258 243 253 228 230 259 243 270 259 264 253
342 339 336 337 340 338 336 333 330 327 330 331 334 329 337 349 322 355 310 331 321 261 318 30 102 87 34 257 14 164 4 241 249 206 203 245 217 226 241 246 205 254 82 268 290 266 288
345 341 335 331 333 336 337 338 339 336 332 328 327 327 330 329 313 280 323 327 41 251 249 149 125 162 212 188 197 133 201 250 324 275 255 249 135 215 230 259 260 95 110 261 284 274 255
327 331 333 332 328 331 332 335 337 338 336 333 322 319 306 294 296 314 324 308 277 224 291 141 114 196 257 206 209 183 183 186 206 227 232 245 231 170 178 231 169 184 145 288 283 223 241
316 319 322 328 328 327 327 330 335 339 337 335 328 319 303 273 276 293 301 254 238 276 261 69 170 254 238 334 218 198 275 245 220 244 298 248 301 184 164 210 179 185 186 171 233 215 272
312 315 314 315 319 322 324 327 328 334 336 339 330 319 283 271 258 233 244 227 238 267 21 2 325 293 281 237 314 320 221 244 285 206 218 283 248 36 159 187 193 191 203 233 305 299 287
315 311 309 309 306 307 315 323 327 329 334 343 326 288 253 245 208 211 241 236 263 323 326 328 290 279 288 294 301 321 268 327 11 51 360 296 303 295 57 35 314 227 299 169 217 242 238
317 317 316 310 305 299 302 315 325 336 331 334 306 274 11 232 142 226 231 240 283 278 351 282 263 279 294 322 306 294 274 315 323 357 360 337 261 283 100 193 191 169 250 238 230 201 240
311 317 314 317 316 310 301 302 316 331 333 348 301 275 3 124 224 247 251 256 349 302 317 288 321 264 255 263 281 273 270 261 4 352 299 306 290 279 266 292 241 244 229 222 227 246 237
312 309 313 314 312 312 314 307 305 327 344 332 268 297 355 333 254 232 242 247 245 244 246 240 261 245 10 316 300 268 296 326 351 7 43 346 288 296 294 242 150 218 232 244 252 267 258
302 309 309 310 310 311 310 301 301 307 328 311 290 283 221 136 317 291 292 288 283 146 274 275 268 242 269 249 262 286 271 320 353 308 128 98 238 243 265 281 302 293 321 313 260 244 252
295 300 299 303 305 304 307 306 293 287 299 227 222 250 282 251 214 232 246 216 274 285 235 302 289 249 267 265 252 254 278 320 311 297 254 190 247 225 251 260 259 265 270 266 267 273 262
283 293 293 297 297 299 296 295 293 273 258 232 271 245 280 289 301 285 240 203 238 251 255 241 245 266 258 268 258 287 295 288 276 295 269 199 259 266 266 264 261 259 257 257 248 246 251
284 285 289 290 294 293 292 292 283 272 231 227 232 255 247 251 271 283 254 256 268 278 258 264 277 320 284 271 309 309 296 271 259 267 263 257 236 253 267 281 281 259 246 248 253 245 246
280 281 282 283 282 289 291 291 285 268 246 224 250 303 265 265 259 258 271 270 282 283 283 296 322 227 256 355 278 263 250 258 255 258 243 254 260 260 269 289 262 263 22 15 318 357 8
276 277 278 279 278 281 287 286 287 272 259 237 238 232 244 258 255 270 273 281 285 306 269 260 274 357 306 43 289 290 281 291 250 211 212 228 258 267 255 255 288 316 22 6 6 54 12
274 273 275 275 277 279 283 282 282 269 262 253 238 240 243 266 220 255 273 270 269 269 291 200 85 22 246 211 240 248 267 299 288 229 145 208 183 220 275 282 279 332 319 316 282 222 1
273 272 272 270 272 276 282 285 279 262 260 252 233 228 234 261 216 191 256 275 248 159 207 248 155 168 194 217 235 245 243 235 274 287 251 263 226 228 256 254 160 338 312 304 252 327 341
274 272 272 265 268 275 281 287 279 260 256 238 226 230 225 255 259 188 12 226 201 197 221 164 150 103 185 242 253 278 276 292 317 238 268 271 319 290 277 241 286 0 347 36 316 315 319
272 271 268 266 271 278 281 285 283 267 241 214 206 220 236 241 11 223 227 240 337 348 133 178 174 179 202 270 275 307 295 326 294 279 54 157 357 309 24 24 341 358 11 343 328 305 11
Height
854 853 851 850 848 846 844 842 840 837 835 833 830 828 824 821 818 815 811 807 804 800 797 795 794 792 791 792 788 786 786 786 785 785 785 786 786 785 788 777 777 786 779 780 784 783 779
857 856 854 852 850 847 845 843 840 838 836 833 830 827 824 820 817 813 809 805 801 798 796 794 793 792 791 795 783 783 784 784 785 786 785 784 783 782 783 781 783 782 780 782 785 786 781
859 857 855 853 851 849 846 844 841 839 836 833 830 827 823 819 814 810 807 803 799 796 794 793 792 792 789 783 778 780 782 782 783 785 786 783 783 784 779 782 780 782 789 788 786 784 786
860 858 856 854 852 850 847 845 842 840 837 834 831 827 823 818 814 809 804 799 795 792 790 791 790 790 786 778 777 777 779 780 781 783 785 785 784 783 781 782 784 789 788 793 771 783 784
860 858 856 854 852 850 847 845 843 841 838 835 831 827 823 818 813 807 801 795 790 788 787 790 791 790 781 776 777 777 777 777 780 780 782 783 784 784 784 790 794 789 797 788 783 777 786
859 858 856 854 852 850 848 845 843 841 838 835 831 827 823 818 812 805 799 792 789 788 787 788 790 794 780 777 777 776 777 779 778 780 780 782 785 791 790 795 806 788 790 777 775 776 778
859 857 855 854 852 849 847 845 843 840 838 835 831 827 823 818 812 805 798 791 793 791 789 781 775 773 772 775 777 779 777 777 778 779 786 779 791 792 784 779 772 770 772 772 763 751 770
859 857 855 853 851 849 847 844 841 839 836 834 831 828 824 819 813 809 805 805 814 817 801 776 769 769 771 772 775 775 778 780 779 784 779 784 789 771 766 766 770 771 773 771 763 763 767
858 856 854 853 851 848 846 843 840 837 834 832 829 826 822 819 815 814 813 815 815 814 808 771 767 770 772 774 770 768 774 773 775 780 777 779 764 757 764 769 770 772 771 769 771 763 764
857 855 852 851 850 848 846 843 839 836 833 830 827 824 822 818 817 815 815 815 813 813 805 771 771 772 775 775 775 768 769 772 771 773 773 772 755 758 763 767 767 775 759 760 761 771 786
855 854 853 851 848 846 844 842 839 835 833 829 827 824 821 818 819 817 817 812 812 813 815 769 775 773 772 776 775 775 775 773 772 767 769 769 759 765 767 755 758 763 759 763 764 768 771
854 852 850 848 846 845 843 841 839 836 832 828 826 824 822 821 819 816 814 811 811 813 811 768 771 772 773 770 768 771 774 776 772 771 765 757 754 760 757 752 756 760 758 762 764 773 789
854 851 849 846 845 841 841 838 835 833 831 828 825 822 820 819 818 816 814 813 815 814 763 771 770 771 769 767 766 769 773 777 776 786 774 753 753 748 751 761 760 760 768 792 792 796 775
854 852 849 846 845 843 839 837 833 830 828 826 823 820 819 817 816 814 814 814 817 783 772 764 771 772 776 764 760 760 768 773 765 767 766 769 766 745 749 752 757 764 763 784 769 771 752
851 849 847 846 843 842 839 837 834 830 827 823 819 817 814 812 813 814 815 816 797 778 777 783 776 772 768 761 767 763 765 768 757 754 767 757 744 733 736 739 747 753 765 741 756 747 758
848 846 843 842 840 839 838 835 832 828 826 823 820 817 813 810 811 814 812 801 790 785 783 783 789 775 776 770 771 770 763 751 753 760 757 750 756 739 748 745 745 748 748 761 766 767 747
846 843 840 838 836 836 835 833 831 827 824 822 819 814 813 812 813 812 809 798 789 785 787 786 784 779 778 782 775 776 769 763 758 761 759 760 757 749 752 755 749 754 757 746 742 743 739
844 840 838 836 833 832 831 830 829 826 822 820 819 815 815 815 817 813 805 799 799 793 792 794 796 795 792 783 778 779 773 770 765 767 767 764 765 758 740 732 735 732 731 733 739 731 725
840 838 835 834 832 830 828 827 827 825 823 822 817 813 816 817 813 806 801 797 793 791 791 788 788 791 790 799 800 784 776 769 772 778 781 783 775 772 741 730 739 740 731 727 722 725 717
835 833 832 830 828 826 825 824 824 824 823 822 821 813 816 817 815 810 804 799 795 795 796 792 788 788 792 795 792 789 780 777 775 778 783 791 785 773 760 745 738 742 738 738 732 726 694
830 829 828 826 824 823 821 821 821 821 821 822 819 812 803 807 811 809 806 804 804 802 795 793 796 788 786 794 786 784 780 778 778 778 776 787 779 772 756 745 747 741 737 734 745 730 723
825 824 822 821 820 818 817 816 816 816 818 820 816 809 803 802 800 797 803 803 801 794 794 797 797 789 782 790 788 785 785 789 785 777 774 784 766 758 751 742 744 740 735 722 719 721 708
819 818 817 815 815 813 812 811 810 811 813 812 809 807 807 800 797 800 800 797 798 789 787 784 785 791 790 788 792 789 789 785 783 783 780 777 774 763 745 736 732 727 712 711 707 701 703
813 812 811 810 809 808 807 807 806 806 808 808 807 806 804 796 797 795 786 785 787 787 788 786 788 794 795 795 793 787 783 778 777 771 777 770 766 760 743 742 732 719 732 729 723 729 744
805 805 805 805 804 803 801 800 799 800 801 802 804 806 802 792 790 792 788 786 784 787 791 789 790 795 797 795 790 780 776 770 765 768 770 772 769 754 741 735 708 707 748 760 752 745 762
798 797 797 797 798 797 795 793 791 791 794 796 796 800 799 791 785 786 787 784 785 782 783 788 795 797 797 791 786 786 769 760 763 765 772 777 772 767 748 729 715 761 760 760 755 729 763
791 790 789 788 788 791 790 786 784 782 784 787 788 792 796 789 781 784 786 783 783 784 782 785 790 794 795 789 780 772 765 757 768 763 758 768 762 761 752 742 745 771 765 757 734 757 764
782 781 782 781 781 782 782 779 776 775 777 781 779 784 789 786 782 781 782 785 784 781 781 788 789 791 792 787 776 769 774 767 766 758 761 760 757 743 744 743 735 779 763 764 780 775 770
773 773 773 774 775 775 775 772 770 769 770 774 776 778 782 783 783 782 781 782 781 779 779 781 783 782 781 783 781 776 771 770 766 756 768 764 787 779 779 783 789 790 788 786 783 778 774